Regional Weather Roundup
Issued by NWS

Home | Current Version | Previous Version | Graphics & Text | Print | Product List | Glossary On
Versions: 1 2 3 4 5 6 7 8 9 10 11 12 13 14 15 16 17 18 19 20 21 22 23 24 25 26 27 28 29 30 31 32 33 34 35 36 37 38 39 40 41 42 43 44 45 46 47 48 49 50
000
ASUS45 KSLC 292010
RWRUT

UTAH REGIONAL WEATHER ROUNDUP
NATIONAL WEATHER SERVICE SALT LAKE CITY UT
200 PM MDT FRI AUG 29 2014

UTZ001>011-023>025-292100-

NORTHERN UTAH

CITY           SKY/WX    TMP DP  RH WIND       PRES   REMARKS
HILL AFB       SUNNY     83  45  26 VRB6      30.09F
LOGAN          SUNNY     81  48  31 SW5       30.07F
OGDEN          SUNNY     84  40  21 VRB5      30.06F
PROVO AIRPORT  MOSUNNY   81  54  39 E3        30.10F
SALT LAKE CITY MOSUNNY   87  39  18 S15       30.04F
VERNAL         MOSUNNY   76  54  46 S9        30.15F
WENDOVER       SUNNY     82  37  20 NE7       30.04F
HEBER CITY     MOSUNNY   77  50  38 CALM      30.14F
WEST JORDAN    SUNNY     84  54  34 S17       30.08F

$$

UTZ012>022-026-027-292100-

SOUTHERN UTAH

CITY           SKY/WX    TMP DP  RH WIND       PRES   REMARKS
BRYCE CANYON   SUNNY     75  36  24 SW8       30.31F
CEDAR CITY     SUNNY     85  24  11 CALM      30.14F
MILFORD        SUNNY     88  32  13 SE10      30.09F
MOAB/CYNLANDS  SUNNY     84  40  21 VRB3      30.08F
PRICE          MOSUNNY   79  36  21 VRB6      30.18F
ST GEORGE      CLEAR     91  48  22 CALM      29.97F

$$

REGIONAL REPORTS     COLORADO/ARIZONA

CITY           SKY/WX    TMP DP  RH WIND       PRES   REMARKS
CRAIG, CO      SUNNY     76  45  33 NW6       30.19F
GRAND JUNCTION MOSUNNY   79  46  31 CALM      30.13F
RIFLE          MOSUNNY   74  47  38 W7        30.16F
MONTROSE       SUNNY     77  40  26 CALM      30.20F
CORTEZ         SUNNY     81  38  21 VRB7G20   30.17F
PAGE, AZ       SUNNY     88  37  16 N7        30.08F
GRAND CANYON   SUNNY     79  30  16 VRB6G14   30.24F
KINGMAN        SUNNY     96  34  11 SE10G22   30.00F HX  91
FLAGSTAFF      SUNNY     77  37  23 N9        30.28F

$$

REGIONAL REPORTS    NEVADA/IDAHO/WYOMING

CITY           SKY/WX    TMP DP  RH WIND       PRES   REMARKS
LAS VEGAS, NV  MOSUNNY  101  30   8 SE6       29.86F HX  94
ELY            MOSUNNY   84  30  14 SE8       30.15F
ELKO           PTSUNNY   86  30  13 VRB3      30.05F
POCATELLO, ID  SUNNY     86  42  21 VRB7      30.04F
BURLEY         SUNNY     82  47  29 N3        30.01F
EVANSTON, WY   SUNNY     75  40  28 SW13      30.24F
ROCK SPRINGS   SUNNY     75  35  23 NW15G24   30.20F

$$


USA.gov is the U.S. government's official web portal to all federal, state and local government web resources and services.